Location: Birkenwerder
(52.6919°N, 13.2774°E)
Time: 07:32:47
(UTC+00:00)

USA 215 - Pass Details

Date: 07 June 2020
Orbit: 1098 x 1110 km, 123.0° (Epoch: 06 July)

Event Time Altitude Azimuth Distance (km) Brightness Sun altitude
Exits shadow 00:28:06 - 163° (SSE) 3,124 5.2 -12.4°
Reaches altitude 10° 00:28:35 10° 165° (SSE) 2,964 5.0 -12.4°
Maximum altitude 00:34:23 33° 228° (SW) 1,768 3.9 -12.1°
Drops below altitude 10° 00:40:12 10° 290° (WNW) 2,970 5.5 -11.8°
Sets 00:43:00 0° 300° (WNW) 3,929 6.3 -11.6°
